GSAT0222 (GALILEO 26)

Last updated on Wed Aug 19 2026 00:02:49 GMT+0000 (Coordinated Universal Time)

1 43565U 18060B 26229.87598745 -.00000110 00000+0 00000+0 0 9993 2 43565 57.1488 340.1198 0004002 237.2279 122.7520 1.70476125 50267
UTC large
Height (km)
Speed (km/s)
/
Latitude / Longitude
Inclination (degrees)
Orbital Period (minutes)
Azimuth
Elevation
Range (km)
Doppler Factor

Next 0 passes for location: London (51.5072 / 0.1276)

No passes found over London.
GSAT0222 (GALILEO 26)